Location: Hylvaty SDH
(49.9612°N, 16.4057°E)
Time: 19:33:32
(UTC+02:00)

Vanguard 2 Rocket - All Passes

Search period start: 09 August 2020 00:00
Search period end: 19 August 2020 00:00
Orbit: 556 x 3324 km, 32.9° (Epoch: 08 August)

Date Brightness Start Highest point End Pass type
(mag) Time Alt. Az. Time Alt. Az. Time Alt. Az.
09 Aug - 01:02:12 10° WSW 01:12:02 20° SSW 01:24:01 10° S visible
09 Aug - 17:30:42 10° SSE 17:32:00 10° SE 17:33:24 10° SE daylight
09 Aug - 19:36:58 10° SW 19:43:37 28° SSE 19:53:44 10° ESE daylight
09 Aug - 21:48:04 10° WSW 21:56:58 33° S 22:10:33 10° SE visible
10 Aug - 00:01:34 10° WSW 00:11:25 24° SSW 00:24:23 10° SSE visible
10 Aug - 18:39:02 10° SSW 18:44:15 21° SSE 18:51:39 10° ESE daylight
10 Aug - 20:49:13 10° SW 20:56:53 31° S 21:08:51 10° ESE visible
10 Aug - 23:01:41 10° WSW 23:10:55 27° SSW 23:23:55 10° SSE visible
11 Aug - 01:19:00 10° WSW 01:25:19 13° SW 01:32:30 10° SSW visible
11 Aug - 17:41:55 10° S 17:45:11 14° SSE 17:49:14 10° ESE daylight
11 Aug - 19:50:40 10° SW 19:57:08 28° S 20:07:05 10° ESE daylight
11 Aug - 22:02:17 10° WSW 22:10:36 28° S 22:22:55 10° SE visible
12 Aug - 00:17:05 10° WSW 00:24:52 17° SSW 00:34:29 10° S visible
12 Aug - 18:52:27 10° SSW 18:57:42 23° SSE 19:05:20 10° ESE daylight
12 Aug - 21:03:17 10° WSW 21:10:32 28° S 21:21:35 10° SE visible
12 Aug - 23:16:36 10° WSW 23:24:30 20° SSW 23:34:58 10° SSE visible
13 Aug - 17:54:45 10° SSW 17:58:33 17° SSE 18:03:33 10° ESE daylight
13 Aug - 20:04:36 10° SW 20:10:47 26° S 20:20:09 10° SE daylight
13 Aug - 22:16:53 10° WSW 22:24:17 22° SSW 22:34:38 10° SSE visible
14 Aug - 00:36:15 10° SW 00:38:20 10° SSW 00:40:33 10° SSW visible
14 Aug - 16:58:48 10° SSE 16:59:37 10° SSE 17:00:28 10° SE daylight
14 Aug - 19:06:12 10° SW 19:11:18 23° S 19:18:44 10° ESE daylight
14 Aug - 21:17:39 10° WSW 21:24:16 23° S 21:33:51 10° SE visible
14 Aug - 23:32:52 10° SW 23:38:06 14° SSW 23:44:20 10° S visible
15 Aug - 18:08:09 10° SSW 18:12:05 18° SSE 18:17:21 10° ESE daylight
15 Aug - 20:18:47 10° SW 20:24:31 23° S 20:32:51 10° SE daylight
15 Aug - 22:32:15 10° SW 22:37:58 16° SSW 22:45:17 10° S visible
16 Aug - 17:10:46 10° S 17:13:04 13° SSE 17:15:45 10° SE daylight
16 Aug - 19:20:13 10° SW 19:25:01 21° S 19:31:48 10° SE daylight
16 Aug - 21:32:33 10° SW 21:38:02 18° SSW 21:45:21 10° SSE visible
17 Aug - 18:21:56 10° SSW 18:25:44 18° S 18:30:47 10° SE daylight
17 Aug - 20:33:24 10° SW 20:38:18 18° S 20:44:58 10° SSE visible
18 Aug - 17:24:05 10° SSW 17:26:40 14° SSE 17:29:44 10° SE daylight
18 Aug - 19:34:36 10° SW 19:38:47 18° S 19:44:24 10° SE daylight
18 Aug - 21:49:07 10° SW 21:51:49 11° SSW 21:54:54 10° S visible
